Location: Unspecified
(35.7250°N, 0.0000°E)
Time: 02:23:52
(UTC+00:00)

Explorer 7 - Pass Details

Date: 23 June 2019
Orbit: 485 x 680 km, 50.3° (Epoch: 17 July)

Event Time Altitude Azimuth Distance (km) Brightness Sun altitude
Rises 07:02:18 0° 211° (SSW) 2,648 9.9 25.2°
Reaches altitude 10° 07:04:32 10° 203° (SSW) 1,792 9.2 25.6°
Maximum altitude 07:08:22 40° 133° (SE) 831 8.5 26.4°
Drops below altitude 10° 07:12:28 10° 64° (ENE) 1,917 11.1 27.2°
Sets 07:14:55 0° 57° (ENE) 2,859 11.5 27.7°
